Temp
26 26 26 27 28 28 28 27 26 25 24 23 23 23 22 22 22 22 22 22 22 22
25 26 26 28 28 27 27 27 26 25 24 23 23 22 22 22 22 22 22 22 22 22
25 26 27 28 28 27 27 28 26 24 24 23 23 23 22 22 22 22 22 22 22 22
26 26 26 27 27 27 27 27 26 25 24 23 23 23 22 22 22 22 22 22 22 22
27 26 26 26 27 27 27 26 26 24 23 23 23 22 22 22 22 22 21 21 22 22
27 27 26 26 26 26 26 25 25 24 23 23 23 22 22 21 22 22 22 22 22 22
28 27 27 26 26 26 26 25 24 23 22 22 22 22 21 21 21 22 22 22 22 22
28 28 27 27 26 26 25 24 24 23 22 22 22 22 22 21 21 21 22 22 22 22
29 28 27 27 26 25 25 23 23 22 22 21 22 22 22 22 22 22 22 22 22 22
29 28 27 27 26 25 24 23 22 22 22 21 21 23 23 22 22 22 22 22 21 21
29 28 27 26 26 24 22 22 22 22 21 21 21 22 22 22 22 21 21 21 21 21
29 27 26 25 23 23 22 22 21 22 21 21 21 21 21 21 21 20 20 21 21 20
27 25 23 23 22 22 22 22 22 22 21 21 22 21 21 20 20 20 20 20 20 20
25 24 22 21 21 21 22 22 22 22 21 21 21 20 20 20 20 20 20 20 20 20
Height
787 789 793 794 793 797 801 804 806 810 813 816 819 823 825 826 828 831 833 834 834 836
780 783 785 787 790 793 797 800 802 804 808 813 817 820 823 825 826 828 831 831 831 831
773 776 778 781 785 788 792 795 796 801 805 810 813 817 819 821 823 824 827 830 830 830
765 767 771 775 778 781 786 788 792 797 801 806 809 812 814 817 818 818 821 824 826 827
755 761 765 768 771 775 780 783 788 792 796 800 804 807 808 811 812 813 815 818 821 823
749 753 756 759 765 769 773 776 780 784 788 793 797 799 800 803 805 806 809 812 815 818
740 743 747 752 756 761 766 770 774 778 783 787 790 793 797 800 803 802 804 807 811 813
730 735 741 746 749 755 760 765 771 776 780 785 789 791 794 798 800 801 802 803 804 808
722 727 733 739 745 751 757 762 767 770 775 780 781 786 790 793 796 797 798 799 800 805
712 718 725 732 739 744 750 756 761 765 767 773 783 785 784 789 792 794 793 795 796 801
705 710 719 727 733 740 746 752 757 762 766 770 773 776 781 785 787 789 790 792 793 795
699 707 715 722 730 737 743 748 753 757 761 766 771 773 779 781 783 785 787 789 791 792
693 702 711 719 727 734 740 745 749 752 755 762 766 771 772 776 779 782 784 785 785 786
694 703 710 718 725 732 738 742 746 750 755 760 764 767 768 772 775 777 779 778 779 782
Wind_Speed
29 26 22 20 20 20 19 19 26 25 22 18 18 16 15 13 12 11 10 7 5 5
31 29 25 25 26 21 22 18 23 25 22 22 18 18 17 16 14 9 11 10 11 9
33 34 32 30 28 28 24 25 25 24 24 22 22 21 20 16 16 15 13 13 14 16
34 35 37 28 29 31 29 31 25 28 25 25 24 24 24 20 20 21 19 15 15 9
38 35 34 35 30 34 30 30 35 28 28 27 27 27 27 26 20 20 22 19 15 13
35 36 36 37 36 32 33 33 32 32 30 30 30 31 31 29 25 21 21 19 18 17
38 39 38 37 37 37 35 34 30 30 31 32 33 34 30 28 25 23 20 17 15 14
39 39 37 36 38 35 33 32 28 26 27 28 29 28 27 26 25 23 20 17 16 17
39 37 36 36 33 30 28 27 23 25 27 28 30 28 28 27 25 25 23 20 16 17
37 37 37 34 31 30 29 23 24 26 32 30 24 23 25 29 27 25 22 19 17 19
34 35 33 31 29 26 24 24 21 23 27 25 25 26 19 21 27 24 21 16 17 19
31 30 29 27 24 22 20 18 21 24 24 23 22 25 21 21 25 25 20 21 19 19
31 30 26 24 20 18 17 19 20 23 23 22 20 20 20 22 22 18 20 20 21 22
25 24 23 22 18 16 15 13 16 17 16 20 24 17 18 21 24 18 18 23 23 20
Wind_Direction
202 210 216 218 204 187 197 203 194 189 202 192 197 191 194 192 185 196 201 203 227 288
198 200 209 212 216 200 204 203 190 195 197 197 193 190 198 195 197 183 199 208 220 230
196 201 208 212 215 207 205 202 198 194 197 196 200 198 197 201 196 200 210 226 235 225
199 203 207 211 210 211 213 205 205 202 195 201 200 198 200 204 205 205 209 218 240 247
202 202 205 212 211 207 208 206 207 199 197 200 202 200 201 207 210 195 207 214 219 239
201 201 206 209 211 210 207 205 206 202 198 199 198 200 204 207 205 204 209 216 219 230
201 205 206 208 211 211 209 207 206 202 200 198 198 204 201 205 209 208 210 214 221 222
204 207 208 210 214 210 210 209 208 203 204 201 203 203 200 207 211 211 212 212 214 228
204 205 207 210 213 209 209 207 203 200 200 199 204 207 210 209 209 211 213 214 218 229
200 200 202 206 206 206 204 198 201 202 206 207 209 211 217 208 211 216 218 220 214 235
197 194 195 200 201 198 195 201 207 211 206 206 212 212 227 221 216 217 222 224 228 237
191 182 187 188 187 193 197 207 217 216 201 203 208 213 216 224 223 226 230 235 236 238
170 173 173 178 182 195 212 223 220 209 194 204 204 218 221 220 222 226 237 241 241 245
160 162 162 169 179 193 207 215 201 192 197 222 230 222 226 223 225 228 242 250 246 237